#timestamp,LO_Frequency,Hit,StdDev 
1568268015.2,286046999.8,P
1568268035.9,286046999.8,N
1568268055.7,286047002.8,Y
1568268075.6,286046999.7,P
1568268095.4,286047000.5,N
1568268115.3,286047001.0,N
1568268135.1,286047000.4,N
1568268136.0,286047000.4,N
1568268155.8,286046998.2,Y
1568268175.7,286047001.1,P
1568268195.5,286046998.2,P
1568268215.3,286047001.1,N
1568268235.2,286046999.9,N
1568268255.0,286047000.8,N
1568268255.9,286047000.8,N
1568268275.8,286047000.0,N
1568268295.6,286047000.4,N
1568268315.4,286047001.2,N
1568268335.3,286047001.1,N
1568268355.1,286047000.8,N
1568268375.9,286046998.5,N
1568268395.7,286046998.6,N
1568268415.5,286046998.3,N
1568268435.4,286046998.5,N
1568268455.2,286046998.4,N
1568268475.0,286046998.7,N
1568268475.9,286046998.7,N
1568268495.8,286046998.7,N
1568268515.6,286046999.5,N
1568268535.5,286046999.1,N
1568268555.3,286046998.9,N
1568268575.1,286046998.9,N
1568268595.9,286046999.3,N
1568268615.7,286046996.5,Y
1568268635.1,286046996.6,P
1568268655.9,286046997.4,N
1568268675.7,286046995.6,P
1568268695.6,286046995.7,N
1568268715.4,286046995.8,N
1568268735.2,286046995.6,Y
1568268755.1,286046998.6,P
1568268756.0,286046998.6,N
1568268775.8,286047001.0,N
1568268795.6,286046999.3,N
1568268815.5,286046998.5,N
1568268835.3,286046998.3,N
1568268855.2,286046998.1,N
1568268875.9,286047001.1,N
1568268895.7,286046998.5,N
1568268915.6,286046999.9,N
1568268935.4,286047000.9,N
1568268955.2,286046999.9,N
1568268975.1,286047000.3,N
1568268976.0,286047000.3,N
1568268995.8,286046998.8,N
1568269015.7,286046996.5,N
1568269035.1,286046999.5,N
1568269036.0,286046999.5,N
1568269055.8,286046999.1,N
1568269075.7,286046999.1,N
1568269095.5,286046998.9,N
1568269115.3,286046996.6,N
1568269135.2,286046996.9,N
1568269155.0,286046999.2,N
1568269155.9,286046999.2,N
1568269175.7,286046998.9,N
1568269195.6,286046998.3,N
1568269215.4,286046998.6,N
1568269235.3,286047001.0,N
1568269255.1,286046998.1,N
1568269256.0,286046998.1,N
1568269275.8,286047001.1,N
1568269295.7,286046998.8,N
1568269315.5,286047001.0,N
1568269335.4,286047000.7,N
1568269355.2,286047000.8,N
1568269375.0,286047001.2,N
1568269375.9,286047001.2,N
1568269395.8,286046998.5,N
1568269415.6,286046999.4,N
1568269435.4,286046999.4,N
1568269455.3,286046999.6,N
1568269475.1,286046997.3,N
1568269495.9,286046999.3,N
1568269515.7,286046998.4,N
1568269535.5,286046998.8,N
1568269555.6,286046999.4,N
1568269575.5,286046998.7,N
1568269595.3,286046996.6,N
1568269615.1,286046996.8,N
1568269635.9,286046996.5,N
1568269655.7,286046999.6,N
1568269675.6,286046997.1,N
1568269695.4,286046996.6,N
1568269715.2,286046997.0,N
1568269735.1,286046998.8,N
1568269736.0,286046998.8,N
1568269755.8,286046999.3,N
1568269775.6,286046996.6,N
1568269795.5,286046998.4,N
1568269815.3,286046999.0,N
1568269835.2,286046996.6,N
1568269855.9,286046999.2,N
1568269875.7,286046999.2,N
1568269895.6,286046998.7,N
1568269915.4,286046998.2,N
1568269935.3,286046998.4,N
1568269955.1,286046997.7,N
1568269956.0,286046997.7,N
1568269975.8,286046997.7,N
1568269995.7,286046996.8,Y
1568270015.5,286046998.9,P
1568270035.4,286047001.2,P
1568270055.2,286047001.0,N
1568270075.0,286047000.4,N
1568270075.9,286047000.4,N
1568270095.8,286046999.8,N
1568270115.6,286047000.0,N
1568270135.4,286047000.4,N
1568270155.3,286047000.9,N
1568270175.1,286047000.0,N
1568270195.9,286047001.9,N
1568270215.7,286047002.5,N
1568270235.5,286047001.1,N
1568270255.4,286047001.2,N
1568270275.2,286047000.5,N
1568270295.1,286047000.0,N
1568270296.0,286047000.0,N
1568270315.8,286047000.2,N
1568270335.6,286047000.4,N
1568270355.5,286046998.6,N
1568270375.3,286046999.1,N
1568270395.1,286046999.5,N
1568270415.9,286046999.4,N
1568270435.7,286046999.4,N
1568270455.6,286046996.7,Y
1568270475.4,286046996.9,P
1568270495.2,286046997.5,N
1568270515.1,286046995.3,P
1568270516.0,286046995.3,N
1568270535.8,286046997.4,N
1568270555.7,286046997.0,N
1568270575.5,286046996.8,N
1568270595.3,286046995.0,Y
1568270615.2,286046999.7,P
1568270635.0,286047001.7,N
1568270635.9,286047001.7,N
1568270655.8,286047004.3,N
1568270675.6,286047001.7,N
1568270695.4,286047003.8,N
1568270715.3,286047001.4,N
1568270735.1,286047003.7,N
1568270755.8,286047004.2,N
1568270775.7,286047003.9,N
1568270795.5,286047003.1,N
1568270815.4,286047003.0,N
1568270835.2,286047003.9,N
1568270855.0,286047001.7,N
1568270855.9,286047001.7,N
1568270875.8,286047001.6,N
1568270895.6,286046999.9,N
1568270915.5,286047002.5,N
1568270935.3,286047001.4,N
1568270955.1,286047003.7,N
1568270975.9,286047001.9,N
1568270995.7,286046999.7,N
1568271015.6,286047001.3,N
1568271035.4,286047003.4,N
1568271055.2,286047004.6,N
1568271075.1,286047005.5,Y
1568271076.0,286047011.9,P
1568271095.8,286047004.4,N
1568271115.6,286047004.4,N
1568271135.5,286047001.7,N
1568271155.3,286047004.2,N
1568271175.2,286047004.3,N
1568271195.9,286047000.0,N
1568271215.7,286046999.9,N
1568271235.6,286046998.5,N
1568271255.4,286046998.1,N
1568271275.3,286046998.1,N
1568271295.1,286047000.3,N
1568271296.0,286047000.3,N
1568271315.8,286047000.0,N
1568271335.7,286047002.2,N
1568271355.5,286047001.3,N
1568271375.3,286047001.3,N
1568271395.2,286046999.8,N
1568271415.0,286046999.7,N
1568271415.9,286046999.7,N
1568271435.8,286047002.3,N
1568271455.6,286047001.3,N
1568271475.4,286047001.7,N
1568271495.3,286047003.8,N
1568271515.1,286047002.0,N
1568271535.9,286047002.3,N
1568271555.7,286047001.6,N
1568271575.5,286047003.6,N
1568271595.4,286047003.3,N
